Theta_e
318 319 318 319 320 320 320 320 320 321 322 321 321 321 321 321 321 321 321 322 322 322 321 321 321 321 322 323 323 324 326 321 350 351 350 353 351 356 351 350 353 350 348 347
319 320 320 321 321 321 321 320 320 320 321 321 321 321 321 322 323 322 322 322 322 322 321 321 321 321 321 322 321 323 324 326 325 336 352 353 353 349 353 351 350 351 348 348
320 321 321 321 320 320 320 320 320 320 320 321 321 321 322 322 322 321 322 322 322 322 322 322 322 321 321 321 323 323 322 323 325 331 327 342 342 346 351 351 348 348 348 347
321 321 321 321 320 319 320 320 320 320 320 319 321 322 324 324 324 324 323 322 322 321 321 321 321 322 323 322 322 322 322 323 323 326 329 326 334 343 343 346 348 349 345 346
320 321 321 321 320 320 320 320 319 319 320 320 320 321 321 322 323 324 325 324 323 322 322 323 323 323 323 323 323 322 323 323 322 325 328 332 333 330 333 342 344 340 343 346
319 319 319 320 320 320 320 319 320 320 319 322 320 322 322 324 326 327 327 325 323 323 324 323 322 322 322 322 323 323 324 325 327 329 330 331 329 330 333 336 336 340 339 344
319 319 319 319 319 320 320 320 321 322 323 324 323 324 326 327 327 326 325 325 324 324 323 322 322 321 321 321 321 322 323 323 323 325 328 329 331 331 331 324 331 337 339 340
321 322 320 321 320 320 320 321 321 323 325 323 325 327 326 327 326 326 326 324 324 323 322 322 321 321 320 320 320 321 321 321 322 323 323 326 329 329 330 331 330 324 326 329
322 322 321 322 322 322 320 320 321 324 326 327 325 325 325 327 327 326 325 323 323 323 322 321 321 320 319 319 319 320 320 320 321 322 321 321 325 327 328 328 328 328 325 324
321 323 321 321 321 322 322 322 323 325 333 328 325 326 326 326 326 326 325 323 322 322 321 320 320 320 319 319 319 319 319 320 320 320 320 322 322 323 327 328 331 330 330 327
321 322 322 321 321 321 322 323 324 325 324 328 327 325 325 326 326 326 325 323 322 321 320 320 319 318 318 317 316 317 318 319 319 318 319 319 319 321 324 327 328 327 329 331
320 322 324 321 319 320 321 322 323 328 327 326 328 329 325 324 323 323 323 322 321 320 318 318 318 317 316 315 316 316 317 317 317 317 318 319 319 318 320 324 326 327 327 330
321 321 322 318 317 322 322 322 323 324 325 327 329 325 322 323 321 321 321 321 320 318 317 317 317 317 316 316 316 315 315 316 315 315 315 315 317 317 318 319 323 327 327 327
316 318 318 320 318 319 319 320 320 321 322 324 324 322 321 321 322 321 321 319 318 317 317 317 316 316 316 315 315 315 314 314 314 314 313 313 314 315 316 318 318 319 324 326
315 317 318 317 316 316 316 317 317 318 319 322 320 318 319 320 320 318 318 318 317 317 318 317 316 315 314 314 314 314 314 313 313 312 312 313 313 313 313 314 317 317 318 320
315 318 317 318 316 316 317 317 317 317 317 317 317 317 318 317 317 317 318 318 316 316 316 315 315 314 314 314 314 314 313 313 313 312 312 312 313 313 312 312 313 315 317 317
317 318 316 317 316 318 319 317 317 317 318 318 317 317 317 317 317 317 316 315 314 314 313 314 313 313 313 312 311 311 311 311 311 311 311 311 311 311 311 312 312 313 315 317
315 315 315 316 316 318 316 318 319 318 316 318 319 317 317 316 315 314 313 313 313 312 312 311 311 310 309 309 309 309 308 309 309 309 309 309 309 309 308 309 310 311 312 315
315 316 318 317 317 317 316 318 318 318 317 318 318 317 316 315 313 313 313 312 311 310 309 308 308 308 308 307 307 307 306 306 307 307 307 307 307 306 307 307 309 309 311 313
317 317 315 317 318 318 320 318 316 314 316 317 316 316 315 313 314 314 312 310 310 309 308 308 308 307 307 307 307 306 307 306 306 307 306 306 305 306 306 306 308 309 311 313
318 318 316 315 316 315 317 317 316 318 319 315 314 313 313 314 313 311 310 310 309 308 307 307 307 307 306 305 305 305 305 306 306 306 306 305 305 304 304 306 307 308 308 310
319 319 317 317 317 318 315 316 318 316 314 313 312 312 312 311 310 310 309 308 307 306 306 306 306 306 304 302 300 303 302 301 304 303 304 304 302 303 304 306 306 305 306 307
317 317 317 317 318 315 314 315 314 313 313 312 312 311 310 309 309 308 307 306 306 306 306 306 304 302 301 299 299 298 301 301 301 301 301 301 301 302 303 304 305 306 306 307
314 314 316 314 314 314 313 313 313 312 311 311 311 309 309 309 308 307 306 306 305 305 304 304 302 300 298 296 296 296 297 297 298 298 299 299 301 302 303 303 304 305 306 305
312 311 312 312 312 314 313 312 311 311 311 310 309 309 308 308 307 306 305 304 304 304 303 301 298 296 295 294 294 294 294 295 296 296 297 298 299 300 302 302 302 303 304 305
310 312 313 313 312 312 312 311 310 310 310 308 308 308 308 307 306 304 304 304 304 302 300 297 295 295 293 293 293 293 293 294 294 295 296 296 297 298 299 301 301 301 302 303
Wind_Speed
16 11 14 17 18 19 20 21 16 14 13 15 18 14 14 14 18 19 23 24 23 20 22 16 17 17 15 16 13 12 13 18 19 20 21 22 25 25 25 29 29 30 33 35
14 16 17 18 18 18 18 18 17 17 19 16 16 17 15 18 20 23 22 20 20 22 22 21 19 16 19 15 17 15 13 14 14 23 23 24 23 25 28 28 31 32 33 37
17 18 16 18 16 18 16 15 16 19 19 19 17 16 16 20 23 25 26 23 21 20 19 21 21 18 18 13 11 12 15 17 16 15 23 25 29 32 25 31 35 33 37 40
16 18 19 12 12 13 19 16 19 19 17 14 17 16 18 19 20 22 28 28 25 21 20 18 22 8 5 4 7 9 14 15 17 16 19 23 24 25 33 36 25 35 37 41
15 16 16 15 16 19 18 17 17 19 16 16 19 13 15 16 17 18 16 22 21 21 17 12 7 5 2 4 8 11 14 19 22 19 21 20 22 26 26 25 34 40 34 38
17 26 16 9 12 10 8 14 18 15 15 16 19 18 17 17 18 17 17 19 19 14 15 8 5 1 2 4 6 11 13 14 11 15 16 18 22 25 27 24 28 28 38 32
16 17 17 19 14 15 14 12 10 14 14 15 21 18 15 14 12 10 7 7 17 12 9 6 5 1 4 5 8 6 9 14 16 16 17 18 19 20 24 30 34 33 32 30
10 10 12 9 11 12 16 11 10 19 15 18 22 14 14 15 18 20 13 5 16 11 9 5 3 4 6 8 8 9 13 16 15 16 19 18 20 23 23 22 24 33 40 41
8 16 13 8 15 16 11 11 14 16 15 15 15 23 20 10 13 18 10 10 8 10 7 2 5 7 7 11 12 11 14 15 16 17 18 21 20 25 23 24 27 33 36 38
7 13 11 15 13 18 12 12 6 4 5 13 13 13 10 14 12 9 7 2 7 4 1 5 9 10 11 13 14 17 15 14 15 17 18 16 21 22 23 26 28 33 35 37
9 10 13 14 14 18 16 11 11 11 12 7 11 10 2 10 13 13 4 5 5 7 10 13 16 15 14 18 20 22 20 16 18 18 20 22 20 22 24 22 27 30 33 33
4 4 10 17 19 21 19 19 17 6 10 10 12 8 14 9 7 8 12 9 6 9 14 16 17 19 16 18 17 19 19 15 16 18 20 19 20 21 25 26 20 24 25 27
7 3 8 9 12 8 7 13 11 12 7 8 10 11 7 5 10 18 17 16 17 21 22 19 17 19 19 19 18 19 22 20 21 21 23 25 23 24 25 29 26 23 23 24
5 9 13 13 17 18 18 13 13 12 3 5 13 18 16 12 11 16 19 13 21 21 20 20 21 20 21 20 20 20 24 24 23 24 25 26 29 26 26 30 28 28 26 28
3 9 15 16 17 19 23 24 21 20 22 18 22 21 21 18 17 13 20 13 13 18 17 20 23 22 22 27 25 25 26 25 26 29 29 29 30 30 29 28 30 29 31 31
3 9 13 19 19 21 24 24 23 22 23 22 23 22 19 18 17 8 9 12 16 21 21 21 24 26 22 19 23 26 24 22 23 28 30 30 29 31 33 32 33 32 32 32
5 3 6 14 18 13 15 18 19 13 17 20 15 11 11 9 12 13 15 18 22 26 27 26 25 28 29 30 29 27 27 28 32 32 30 30 31 34 32 31 33 34 32 32
11 11 5 8 13 13 10 8 18 10 9 12 12 10 11 10 14 19 21 20 20 25 28 30 32 35 37 38 36 33 33 31 32 33 30 31 33 35 39 43 36 34 34 32
16 11 3 4 9 16 21 7 3 6 8 11 7 11 15 20 26 24 20 27 29 29 32 33 33 31 35 39 40 40 44 43 39 38 36 36 38 41 39 40 39 41 34 35
13 14 6 7 6 6 7 1 5 4 10 11 12 13 16 23 14 14 32 34 33 33 33 34 34 31 33 33 33 36 37 36 38 37 37 37 37 34 37 41 40 35 31 34
3 3 9 8 7 9 4 3 13 6 4 13 15 19 21 15 17 31 34 34 34 35 34 34 36 30 31 35 39 42 39 37 36 33 36 36 36 37 41 37 35 37 37 29
8 5 5 7 6 7 13 13 5 3 10 14 17 21 24 27 30 32 33 34 35 36 37 36 31 32 46 47 43 37 41 44 43 44 40 40 41 40 38 36 38 38 36 36
4 4 1 4 3 4 9 11 8 7 12 15 21 24 25 29 30 33 35 36 36 37 36 33 35 50 47 42 37 45 37 36 36 37 39 41 41 38 36 35 34 34 37 31
4 3 3 4 2 10 10 3 5 11 16 20 21 25 26 30 31 34 35 36 37 35 40 42 45 43 46 43 41 40 39 37 40 41 40 37 35 36 36 35 34 34 33 36
13 10 10 14 7 20 1 6 15 17 19 22 24 25 26 29 33 34 35 36 38 40 40 40 46 45 48 45 44 41 38 35 37 37 37 39 40 38 36 38 40 40 39 36
14 5 4 4 7 7 14 16 17 19 21 23 25 27 27 28 31 33 36 37 38 42 42 50 45 46 48 45 41 36 32 31 34 38 37 36 35 35 36 35 39 42 41 43
Wind_Direction
219 236 235 232 228 253 270 285 297 290 236 198 213 229 251 263 262 219 219 221 230 233 248 237 237 235 237 233 267 282 283 243 223 226 240 241 230 234 235 227 235 231 230 234
242 226 250 254 255 253 254 266 272 282 291 289 280 267 256 256 259 261 258 244 245 237 229 240 238 231 229 233 254 252 274 275 268 236 230 237 243 243 235 238 230 229 237 242
232 246 246 223 261 267 258 264 272 273 280 281 274 262 268 262 256 259 261 257 243 255 248 235 230 232 222 215 212 247 285 287 277 268 241 239 243 241 241 237 231 232 232 239
246 249 260 241 239 263 273 246 253 261 266 266 266 271 256 252 242 229 232 232 237 236 254 255 245 197 157 237 277 284 275 275 281 277 265 257 246 249 245 239 243 241 237 236
261 254 256 259 277 281 264 258 269 284 281 280 262 265 266 263 257 253 240 231 225 214 223 115 109 79 29 310 298 291 290 278 268 268 263 255 251 257 262 251 247 245 247 246
289 299 292 289 279 320 321 299 283 261 266 257 259 256 260 261 262 259 234 216 205 207 117 114 110 58 309 301 308 292 296 300 301 289 293 287 272 260 251 246 247 250 250 254
261 260 275 287 264 262 269 255 265 253 242 248 243 244 245 274 335 330 311 71 112 116 134 137 121 243 310 313 288 315 304 309 306 302 294 287 285 282 273 258 251 252 248 251
271 275 239 278 271 282 283 276 267 281 285 291 314 290 292 329 310 298 261 141 132 148 162 141 191 260 272 286 289 288 284 293 299 293 299 291 283 280 277 272 271 264 262 260
291 255 291 353 301 312 290 270 293 307 293 271 262 273 272 1 352 351 184 192 146 115 88 44 284 286 300 290 286 281 287 281 280 288 299 295 294 296 293 283 272 260 260 261
274 285 276 286 291 283 281 303 316 247 267 272 271 292 298 353 330 15 329 348 271 62 21 277 289 299 296 294 290 281 271 284 285 288 288 297 283 283 289 282 273 276 273 266
260 261 278 279 264 265 267 224 246 256 262 255 272 271 359 39 354 344 334 309 7 311 311 299 305 302 303 307 304 293 288 278 284 291 283 281 288 296 284 291 286 281 276 273
290 281 279 280 287 275 267 265 260 235 237 240 259 264 288 70 17 344 328 341 307 294 290 289 293 297 300 298 293 297 295 284 286 293 297 293 290 286 297 283 287 284 292 275
4 263 299 291 287 53 10 345 356 321 275 242 268 261 303 2 337 311 297 299 304 298 288 281 284 277 281 279 279 278 291 297 292 290 292 293 293 286 288 290 285 273 269 269
338 270 265 271 284 302 285 248 258 255 231 281 262 280 286 297 199 247 256 277 283 289 286 283 279 288 300 294 293 288 284 283 290 293 288 288 287 291 283 285 287 296 276 265
225 268 270 274 280 280 284 284 279 260 259 260 278 281 286 290 281 290 30 292 281 287 299 299 298 296 287 288 285 282 279 274 278 283 287 285 285 287 284 283 282 278 281 268
248 261 284 284 285 274 271 271 271 269 269 265 268 270 273 312 307 1 333 303 284 284 283 286 290 295 306 312 303 302 302 293 285 280 278 279 282 282 277 278 282 278 279 278
236 240 291 278 291 303 275 264 270 285 298 274 273 312 340 351 360 342 309 311 318 314 311 315 323 321 316 313 310 304 303 291 287 282 282 279 281 281 287 285 277 277 274 275
236 251 266 284 292 272 283 2 321 250 248 26 344 336 21 12 341 323 313 316 348 331 324 320 316 311 308 305 300 295 298 295 285 280 281 276 278 280 281 281 283 278 272 272
214 222 247 259 278 283 285 323 308 52 321 59 12 349 344 336 327 315 321 338 326 321 316 310 305 304 302 298 297 294 289 287 284 281 277 275 274 279 273 273 278 272 276 262
199 211 178 270 280 286 37 218 210 358 290 22 357 340 330 329 314 311 331 321 313 312 306 305 303 302 304 302 298 292 282 280 280 277 272 271 277 274 271 269 268 268 263 258
164 190 226 237 248 266 40 267 279 250 3 338 336 325 318 316 318 316 313 309 311 307 306 309 306 304 303 305 300 290 288 284 275 276 274 272 275 270 274 263 259 265 267 264
196 195 198 220 235 246 9 338 351 339 321 319 326 312 320 316 314 311 314 317 316 314 310 305 302 299 299 301 302 291 289 284 279 285 277 271 278 273 264 259 261 260 263 260
265 226 249 222 284 292 309 297 325 324 314 324 310 320 322 315 316 317 317 315 312 311 311 312 310 308 306 304 294 296 290 288 289 283 278 273 272 268 259 257 255 254 252 254
289 334 247 296 280 294 291 352 304 315 329 310 322 323 321 318 318 317 316 317 315 316 317 313 311 306 305 306 304 297 293 286 282 280 280 277 270 263 258 254 248 245 245 244
273 281 278 281 340 343 202 316 337 330 319 324 321 321 321 319 317 319 317 318 317 315 313 313 314 309 310 309 305 303 296 290 285 278 274 272 269 265 259 251 251 248 244 241
284 339 312 308 309 292 305 325 321 313 323 323 323 322 320 320 320 322 320 317 317 318 315 319 317 313 312 311 308 304 297 290 283 279 276 272 268 263 257 256 256 260 252 242